User: anonymous   Login
Location: Dackenheim
(49.5215°N, 8.1854°E)
Time: 22:15:53
(UTC+00:00)
Language:

NOAA 19 - Orbit

View from above orbital plane
View from above orbital plane
View from above satellite
View from above satellite

Ground track
Ground track

The orbit is defined by the following mean orbital elements,

1 33591U          26071.63763175 +.00000000 +00000-0 +56666-4 0 00001
2 33591  98.9601 142.4135 0012778 305.7178  54.2805 14.13457513    00
Epoch (UTC): 12 March 2026 15:18:11
Eccentricity: 0.0012778
inclination: 98.9601°
perigee height: 838 km
apogee height: 857 km
right ascension of ascending node: 142.4135°
argument of perigee: 305.7178°
revolutions per day: 14.13457513
mean anomaly at epoch: 54.2805°

The dashed part of the orbit path shows where the satellite is in the earth's shadow,  

DLR